Regional Weather Roundup
Issued by NWS

Home | Current Version | Previous Version | Text Only | Print | Product List | Glossary Off
Versions: 1 2 3 4 5 6 7 8 9 10 11 12 13 14 15 16 17 18 19 20 21 22 23 24 25 26 27 28

000
ASUS45 KBOU 210210
RWRCO

WEATHER ROUNDUP FOR COLORADO
NATIONAL WEATHER SERVICE DENVER/BOULDER CO
700 PM MST SAT JAN 20 2018

NOTE: "FAIR" INDICATES FEW OR NO CLOUDS BELOW 12000 FEET WITH NO
SIGNIFICANT WEATHER AND/OR OBSTRUCTIONS TO VISIBILITY.

COZ001>005-013-030-031-210300-
...NORTHWEST COLORADO...

CITY           SKY/WX    TMP DP  RH WIND       PRES   REMARKS
CRAIG          CLOUDY    33  30  88 W12       29.69S WCI  24
HAYDEN         MOCLDY   N/A N/A N/A SW5       29.69F
MEEKER         MOCLDY    35  31  85 CALM      29.67S
RABBIT EARS PA LGT SNOW  27  27 100 SW9G20    29.73F WCI  17
STEAMBOAT SPGS CLOUDY    35  31  87 CALM      29.68S
WALDEN         CLOUDY    36  25  64 SW8       29.70F
$$

COZ006>008-011-210300-
...WEST CENTRAL VALLEYS...

CITY           SKY/WX    TMP DP  RH WIND       PRES   REMARKS
GRAND JUNCTION LGT RAIN  37  37 100 N15       29.73S
MONTROSE       FAIR      41  33  73 S5        29.72F
EAGLE          CLOUDY    40  33  76 NW6       29.71F
RIFLE          LGT RAIN  37  36  96 W3        29.70S
DELTA          CLOUDY    46  33  60 CALM      29.72F
NUCLA          LGT RAIN  36  32  87 SW18G25   29.80R
$$

COZ017>023-064>068-210300-
...SOUTHWEST COLORADO...

CITY           SKY/WX    TMP DP  RH WIND       PRES   REMARKS
DURANGO        LGT RAIN  37  35  92 CALM      29.78S
CORTEZ         LGT SNOW  33  33 100 S10       29.81R FOG     WCI  25
PAGOSA SPRINGS LGT SNOW  34  34  99 CALM      29.81F
TELLURIDE      LGT SNOW  31  31 100 CALM      29.77F
WOLF CREEK PAS HVY SNOW  21  21 100 MISG      29.86F VSB 1/4
$$

COZ009-010-012-014-032>034-037-058>063-210300-
...CENTRAL COLORADO...

CITY           SKY/WX    TMP DP  RH WIND       PRES   REMARKS
ASPEN          CLOUDY    36  30  79 CALM      29.70F
BUENA VISTA    CLOUDY    42  15  32 S9        29.73F
COPPER MTN     NOT AVBL
BERTHOUD PASS  MOCLDY    21  10  63 S23G29    29.81F WCI   5
COTTONWOOD PAS   N/A     41  19  42 W8        29.78F
GUNNISON       CLOUDY    35  22  58 SE6       29.74F WCI  30
KREMMLING      CLOUDY    41  32  70 E5        29.69F
LEADVILLE      CLOUDY    30  19  63 S17       29.75S WCI  18
MONARCH PASS   CLOUDY    23  16  74 SW21      29.92F WCI   8
SALIDA         FAIR      43  17  35 SW7G16    29.80F
SUNLIGHT       HVY SNOW  27  23  86 SW7       29.80S VSB 1/4 WCI  19
WILKERSON PASS FAIR      28  12  50 SW7G17    29.85S WCI  21
$$

COZ069>075-210300-
...SAN LUIS VALLEY/SANGRE DE CRISTO MOUNTAINS...

CITY           SKY/WX    TMP DP  RH WIND       PRES   REMARKS
ALAMOSA        FAIR      37  13  37 S13       29.76F
DEL NORTE      FAIR      34  24  64 W8        29.79R WCI  28
LA VETA PASS   FAIR      34  16  47 S16G29      N/A  WCI  23
SAGUACHE       FAIR      32  16  51 N7        29.77F WCI  26
$$

COZ035-036-038>040-210300-
...NORTHERN COLORADO FRONT RANGE...

CITY           SKY/WX    TMP DP  RH WIND       PRES   REMARKS
DENVER INTL AP MOCLDY    29  24  82 NE9       29.81R WCI  20
DMNS CITY PARK NOT AVBL
AURORA         MOCLDY    29  26  89 NE8       29.80S WCI  21
FRONT RANGE AP MOCLDY    32  28  86 NE9       29.81S WCI  24
ERIE MUNI ARPT CLOUDY    33  28  82 NE6       29.89R WCI  28
BOULDER MUN AP CLOUDY    34  30  86 NE6       29.83R WCI  29
CENTENNIAL     MOCLDY    33  27  78 NE6       29.80R WCI  28
BROOMFIELD     CLOUDY    34  28  80 N10       29.82S WCI  26
FORT COLLINS   CLOUDY    32  28  85 NE14      29.84S WCI  22
LONGMONT       CLOUDY    36  29  77 NE8       29.85R
$$

COZ041-046-047-076>085-087-088-210300-
...PIKES PEAK/PALMER DIVIDE AND SOUTHERN FOOTHILLS...

CITY           SKY/WX    TMP DP  RH WIND       PRES   REMARKS
COLO. SPRINGS  MOCLDY    40  22  48 NE14      29.72R
A. F. ACADEMY  MOCLDY    36  21  54 N12       29.74R
SCHRIEVER AFB  FAIR      36  24  60 N13G20    29.73R
CHEYENNE MTN   MOCLDY    42  18  38 NW12G17   29.67S
ELLICOTT         N/A    N/A N/A N/A NE9G20    29.72S
FALCON         FAIR      33  23  65 N12       29.75S WCI  24
FORT CARSON    FAIR      45  22  40 N16       29.69R
LIMON          FAIR      31  24  75 N9        29.77S WCI  23
MONUMENT HILL  FAIR      28  25  86 N6        29.79S WCI  22
CANON CITY     FAIR      50  18  27 S9        29.66S
WALSENBURG     FAIR      48  19  32 W9        29.70F
TRINIDAD       FAIR      47  13  25 W10       29.71S
$$

COZ042>045-048>051-090-091-210300-
...NORTHEAST COLORADO...

CITY           SKY/WX    TMP DP  RH WIND       PRES   REMARKS
GREELEY ARPT   CLOUDY    33  28  81 NE14      29.84S WCI  23
AKRON          MOCLDY    29  27  92 N15       29.82R WCI  18
BURLINGTON     FAIR      32  25  75 N7        29.77R WCI  26
WRAY           FAIR      34  30  86 N15       29.80F WCI  24
YUMA           FAIR      30  25  80 N10       29.81R WCI  21
STERLING       CLOUDY    32  30  93 NE8       29.85R WCI  25
HOLYOKE        FAIR      34  30  86 N10       29.84S WCI  26
FORT MORGAN    FAIR      31  26  83 N13       29.84S WCI  21
$$

COZ086-089-092>099-210300-
...SOUTHEAST COLORADO...

CITY           SKY/WX    TMP DP  RH WIND       PRES   REMARKS
PUEBLO         FAIR      60  17  18 S9        29.63F
LA JUNTA       FAIR      47  23  38 NE13      29.68R
LAMAR          FAIR      44  24  45 NE8       29.69R
SPRINGFIELD      N/A     54  16  22 S17       29.66S
$$




USA.gov is the U.S. government's official web portal to all federal, state and local government web resources and services.